Location: Goettingen
(51.5300°N, 9.9433°E)
Time: 19:53:04
(UTC+01:00)

ISS - Pass Details

Date: 23 January 2022
Orbit: 413 x 422 km, 51.6° (Epoch: 28 January)

Event Time Altitude Azimuth Distance (km) Brightness Sun altitude
Rises 17:25:31 0° 217° (SW) 2,338 1.3 -5.2°
Reaches altitude 10° 17:27:49 10° 204° (SSW) 1,479 -0.2 -5.5°
Maximum altitude 17:30:35 25° 147° (SSE) 887 -2.2 -5.9°
Drops below altitude 10° 17:33:22 10° 90° (E) 1,487 -1.5 -6.3°
Enters shadow 17:33:58 - 86° (E) 1,698 -1.3 -6.4°
